Regional Weather Roundup
Issued by NWS

Home | Current Version | Previous Version | Graphics & Text | Print | Product List | Glossary On
Versions: 1 2 3 4 5 6 7 8 9 10 11 12 13 14 15 16 17 18 19 20 21 22 23 24 25 26 27 28 29 30 31 32 33 34 35 36 37 38 39 40 41 42 43 44 45 46 47 48 49 50
000
ASUS43 KMPX 272301
RWRMN
WEATHER ROUNDUP FOR MINNESOTA
NATIONAL WEATHER SERVICE TWIN CITIES/CHANHASSEN MN
500 PM CST FRI FEB 27 2015


NOTE: "FAIR" INDICATES FEW OR NO CLOUDS BELOW 12,000 FEET WITH NO
SIGNIFICANT WEATHER AND/OR OBSTRUCTIONS TO VISIBILITY. N/A MEANS
CURRENT SKY AND/OR WEATHER CONDITIONS ARE NOT AVAILABLE.

MNZ060>063-068>070-280000-
   Twin Cities Metro

CITY           SKY/WX    TMP DP  RH WIND       PRES   REMARKS
TWIN CITIES    CLEAR     14  -2  49 SW8       30.50F WCI   3
ST PAUL        CLEAR     15  -1  49 SW9       30.52F WCI   3
CRYSTAL        CLEAR     15   0  51 SW6       30.49S WCI   6
LAKEVILLE      CLEAR     10  -2  56 W3        30.50F
EDEN PRAIRIE   CLEAR     13  -1  54 SW9       30.49F WCI   1
SOUTH ST PAUL  CLEAR     16   0  49 SW6       30.50F WCI   7
LAKE ELMO      FAIR      18   1  49 SW8       30.50S WCI   7
$$
MNZ001>005-007-008-013>017-022>024-027-028-280000-
   Northwest Minnesota

CITY           SKY/WX    TMP DP  RH WIND       PRES   REMARKS
BEMIDJI        CLEAR     15  -5  41 W7        30.34S WCI   5
HALLOCK        CLEAR     16   5  62 SW9       30.34F WCI   4
ROSEAU         CLEAR     12   1  62 SW12      30.32F WCI  -2
WARROAD        CLEAR     12   0  57 SW9       30.32S WCI   0
THIEF RVR FALL CLEAR     14  -8  37 SW10      30.35S WCI   1
CROOKSTON      CLEAR     16   7  67 SW12      30.38F WCI   3
FOSSTON        CLEAR     16   3  57 SW10      30.36F WCI   3
DETROIT LAKES  CLEAR     16   1  53 SW9       30.38F WCI   4
MOORHEAD       SUNNY     18  -4  38 SW10      30.41F WCI   6
PARK RAPIDS    CLEAR     15  -6  39 SW12      30.35F WCI   2
MAHNOMEN       FAIR      16   2  55 SW12      30.37F WCI   2
$$
MNZ006-009>011-018-025>026-280000-
   North Central Minnesota

CITY           SKY/WX    TMP DP  RH WIND       PRES   REMARKS
BAUDETTE       CLEAR     16  -8  34 W9        30.29F WCI   4
FLAG ISLAND    CLEAR     12   0  57 S9        30.27S WCI   0
INTL FALLS     PTCLDY    17  -8  32 SW12      30.30F WCI   4
WASKISH        FAIR      14  -2  48 SW10      30.34F WCI   1
BIG FORK       CLEAR     19  -9  27 SW10      30.32F WCI   8
LONGVILLE      CLEAR     18  -8  32 SW7       30.36S WCI   8
GRAND RAPIDS   CLEAR     19  -8  30 W8        30.33F WCI   9
CRANE LAKE     CLEAR     19 -13  23 SW6       30.32F WCI  11
ORR            CLEAR     19 -15  21 W5        30.28F WCI  13
COOK           CLEAR     19  -9  27 SW10      30.31F WCI   8
WALKER         FAIR      18  -8  31 SW6       30.35S WCI  10
$$
MNZ012-019>021-037-280000-
   Northeast Minnesota

CITY           SKY/WX    TMP DP  RH WIND       PRES   REMARKS
DULUTH         CLEAR     18  -5  36 W16       30.34F WCI   3
HIBBING        CLEAR     19 -11  26 W9        30.33F WCI   8
EVELETH        CLEAR     19  -8  30 W7        30.33F WCI  10
DULUTH HARBOR  CLEAR     19  -6  32 SW15      30.42S WCI   5
TWO HARBORS    CLEAR     21  -2  35 SW10      30.34S WCI  10
SILVER BAY     CLEAR     21  -9  25 SW7       30.32F WCI  13
GRAND MARAIS     N/A     20  10  65 SW28      30.33F WCI   2
G MARAIS ARPRT CLEAR     16 -15  24 W6        30.26S WCI   7
$$
MNZ029>031-032-039>041-046>048-054>057-064-280000-
   West Central Minnesota

CITY           SKY/WX    TMP DP  RH WIND       PRES   REMARKS
FERGUS FALLS   SUNNY     16  -2  45 SW7       30.45S WCI   6
WHEATON        SUNNY     12  -2  52 S6        30.45S WCI   3
MORRIS         SUNNY     16   0  48 S6        30.43S WCI   7
ALEXANDRIA     CLEAR     12  -3  51 SW7       30.41F WCI   1
ELBOW LAKE     FAIR      13   1  58 CALM      30.42F
WADENA         CLEAR     12   0  57 SW6       30.39F WCI   3
GLENWOOD         N/A    N/A N/A N/A SW7       30.43
APPLETON       SUNNY     18   0  45 S6        30.45F WCI   9
BENSON         SUNNY     16   0  48 SW6       30.45F WCI   7
ORTONVILLE     SUNNY     16   0  48 S6        30.43F WCI   7
MADISON        SUNNY     18   1  49 SW7       30.45F WCI   8
WILLMAR        FAIR      14   0  52 S3        30.47F
$$
MNZ033>034-036-042>043-049>051-058-059-280000-
   Central Minnesota

CITY           SKY/WX    TMP DP  RH WIND       PRES   REMARKS
ST CLOUD       CLEAR     16  -4  41 S9        30.45F WCI   4
SAUK CENTRE    FAIR      15  -2  47 SW7       30.43S WCI   5
PAYNESVILLE    CLEAR     12  -3  51 SE7       30.45S WCI   1
AITKIN         CLEAR     21 -11  23 SW8       30.37F WCI  12
PINE RIVER     CLEAR     18  -2  41 SW7       30.40S WCI   8
BRAINERD       CLEAR     16  -5  39 SW12      30.39F WCI   3
STAPLES        CLEAR     12  -6  44 W6        30.40S WCI   3
LONG PRAIRIE   FAIR      14  -2  48 SW7       30.41F WCI   4
LITTLE FALLS   CLEAR     18  -6  35 SW6       30.43S WCI   9
LITCHFIELD     CLEAR     12   0  57 CALM      30.47F
MAPLE LAKE     CLEAR     16   0  50 SW8       30.48F WCI   5
$$
MNZ037-044-045-052-053-280000-
   East Central Minnesota

CITY           SKY/WX    TMP DP  RH WIND       PRES   REMARKS
PRINCETON      CLEAR     18   0  45 S7        30.45F WCI   8
MORA           CLEAR     18  -2  41 SW7       30.45F WCI   8
CAMBRIDGE      FAIR      18   3  53 S6        30.45S WCI   9
RUSH CITY      CLEAR     16  -2  43 SW3       30.46S
MOOSE LAKE     CLEAR     19  -6  32 SW9       30.38F WCI   9
HINCKLEY       FAIR      18   0  45 SW12      30.43F WCI   5
CLOQUET        CLEAR     18  -9  29 SW7G16    30.36F WCI   8
MCGREGOR       CLEAR     18   0  45 S10       30.39S WCI   6
$$
MNZ071>073-080-081-089-090-097-098-280000-
   Southwest Minnesota

CITY           SKY/WX    TMP DP  RH WIND       PRES   REMARKS
MONTEVIDEO     SUNNY     18   1  49 SW7       30.47F WCI   8
GRANITE FALLS  SUNNY     15   4  61 S6        30.48F WCI   6
CANBY          SUNNY     15   1  53 SW6       30.45F WCI   7
MARSHALL       SUNNY     14   3  62 SW7       30.46F WCI   4
REDWOOD FALLS  SUNNY     14   3  61 S8        30.48F WCI   3
OLIVIA         SUNNY     14   5  67 S3        30.47F
PIPESTONE      SUNNY     10   1  67 S9        30.41F WCI  -2
WINDOM         SUNNY     12   1  62 S6        30.46F WCI   3
WORTHINGTON    SUNNY     25  -2  30 S8        30.46F WCI  16
JACKSON        SUNNY     12   1  62 SW8       30.47F WCI   1
TRACY          SUNNY     15   2  58 SW7       30.45F WCI   5
SLAYTON        SUNNY     12  -1  57 CALM      30.43F
$$
MNZ065>067-074>077-082>085-091>093-280000-
   South Central Minnesota

CITY           SKY/WX    TMP DP  RH WIND       PRES   REMARKS
MANKATO        CLEAR     10  -4  52 S10       30.51S WCI  -3
NEW ULM        CLEAR     12   0  57 SW5       30.50S WCI   4
ST JAMES       SUNNY     12   3  67 S7        30.51F WCI   2
FAIRMONT       SUNNY     12   0  57 S8        30.49S WCI   1
GLENCOE        CLEAR     13   3  65 SW7       30.49S WCI   3
FARIBAULT      CLEAR     10   0  61 S6        30.51S WCI   1
OWATONNA       CLEAR      9   0  66 S8        30.50F WCI  -4
WASECA         CLEAR     12   1  62 SW9       30.53S WCI   0
ALBERT LEA     CLEAR      9   1  72 SW7       30.50F WCI  -3
$$
MNZ078>079-086>088-094>096-280000-
   Southeast Minnesota

CITY           SKY/WX    TMP DP  RH WIND       PRES   REMARKS
ROCHESTER      CLEAR      5  -3  69 W7        30.50S WCI  -7
RED WING       CLEAR     14  -2  48 SW7       30.52S WCI   4
STANTON        CLEAR     13   0  56 S7        30.50F WCI   2
DODGE CENTER   PTCLDY     7   0  72 SW9       30.49F WCI  -7
WINONA         CLEAR     14   0  52 SW6       30.57R WCI   5
AUSTIN         CLEAR      7  -2  66 SW7       30.51F WCI  -5
PRESTON        CLEAR      5  -4  66 W7        30.52S WCI  -7
$$
ABBREVIATIONS USED IN REMARKS
   TC - TEMPERATURES IN CELSIUS
  WCI - WIND CHILL INDEX
   HX - HEAT INDEX
  VSB - VISIBILITY
$$



USA.gov is the U.S. government's official web portal to all federal, state and local government web resources and services.